{"data":{"norad_id":57769,"intl_designator":"2023-133N","name":"WILDFIRE 5","alt_names":[],"object_type":"PAYLOAD","status":"ACTIVE","operator":null,"country":"US","launch_date":"2023-09-02","launch_site_code":"AFWTR","launch_vehicle":null,"mission":null,"orbit_class":"UNKNOWN","rcs_meters":null,"size_class":null,"mass_kg":null,"dimensions":null,"purposes":[],"wikipedia_slug":null,"has_3d_model":false,"image_url":null,"decayed_at":null,"tle_current":{"epoch":"2026-05-25T02:34:09.610752Z","epoch_age_seconds":79878,"freshness":"FRESH","line1":"1 57769U 23133N   26145.10705568  .00000026  00000+0  13123-4 0  9997","line2":"2 57769  81.0052  29.9602 0007188  72.4499 287.7442 13.85463721137835","mean_motion":13.85463721,"eccentricity":0.0007188,"inclination_deg":81.0052,"raan_deg":29.9602,"arg_perigee_deg":72.4499,"mean_anomaly_deg":287.7442,"bstar":1.3123e-5,"rev_number":13783,"period_min":103.93631952778,"perigee_km":939.30776387125,"apogee_km":949.8348893616,"semimajor_km":7322.7083266164,"source":"CELESTRAK","updated_at":"2026-05-25T13:38:00.239463Z"}}}